This is the latest recevied weather packets stored in our database for station/object OH6HPS. If no packets are shown the sender has not sent any weather packets the latest 10 day(s).
| Time | Temp. | Humidity | Pressure | Rain* | Wind** | Luminosity | Snow |
|---|---|---|---|---|---|---|---|
| 1777575903 | 10.56° C | 70% | 1021 hPa | 0 mm | - | 0 W/m² | - |
| 1777575302 | 10.56° C | 68% | 1020.9 hPa | 0 mm | - | 0 W/m² | - |
| 1777574705 | 11.11° C | 67% | 1020.8 hPa | 0 mm | - | 0 W/m² | - |
| 1777574102 | 11.67° C | 66% | 1020.8 hPa | 0 mm | - | 0 W/m² | - |
| 1777573503 | 12.22° C | 65% | 1020.7 hPa | 0 mm | - | 0 W/m² | - |
| 1777572902 | 12.78° C | 63% | 1020.7 hPa | 0 mm | - | 5 W/m² | - |
| 1777572303 | 12.78° C | 62% | 1020.7 hPa | 0 mm | - | 7 W/m² | - |
| 1777571702 | 13.33° C | 61% | 1020.6 hPa | 0 mm | - | 9 W/m² | - |
| 1777571102 | 13.33° C | 60% | 1020.6 hPa | 0 mm | - | 11 W/m² | - |
| 1777570504 | 13.89° C | 60% | 1020.5 hPa | 0 mm | - | 12 W/m² | - |
| 1777569903 | 13.89° C | 59% | 1020.4 hPa | 0 mm | - | 14 W/m² | - |
| 1777569303 | 13.89° C | 59% | 1020.3 hPa | 0 mm | - | 18 W/m² | - |
| 1777568702 | 14.44° C | 58% | 1020.3 hPa | 0 mm | - | 25 W/m² | - |
| 1777568105 | 14.44° C | 57% | 1020.2 hPa | 0 mm | - | 28 W/m² | - |
| 1777567502 | 14.44° C | 56% | 1020.2 hPa | 0 mm | - | 30 W/m² | - |
| 1777566903 | 15° C | 55% | 1020.2 hPa | 0 mm | - | 34 W/m² | - |
| 1777566302 | 15.56° C | 55% | 1020.2 hPa | 0 mm | - | 79 W/m² | - |
| 1777565704 | 15.56° C | 54% | 1020.1 hPa | 0 mm | - | 104 W/m² | - |
| 1777565104 | 15.56° C | 53% | 1020 hPa | 0 mm | - | 137 W/m² | - |
| 1777564503 | 16.11° C | 52% | 1020 hPa | 0 mm | - | 95 W/m² | - |
| 1777563905 | 16.11° C | 52% | 1019.9 hPa | 0 mm | - | 192 W/m² | - |
| 1777563303 | 16.67° C | 51% | 1019.8 hPa | 0 mm | - | 127 W/m² | - |
| 1777562704 | 17.22° C | 50% | 1019.9 hPa | 0 mm | - | 269 W/m² | - |
| 1777562103 | 17.78° C | 50% | 1019.9 hPa | 0 mm | - | 281 W/m² | - |
| 1777561504 | 17.78° C | 49% | 1019.8 hPa | 0 mm | - | 204 W/m² | - |
* Rain latest hour (hover to see other rain measurements)
** Current wind speed in m/s (hover to see current wind gust speed)